[[{"header":{"parameterUnit":"m.s-1","parameterCategory":2,"la1":30.2991,"la2":30.254,"lo1":-89.0895,"lo2":-89.0444,"dy":0.0017,"dx":0.0017,"nx":28,"ny":28,"refTime":"2024-07-15T03:00:00:Z","depth":"0","parameterNumber":2,"parameterNumberName":"U-component_of_CURRENTS"},"data":[0,0,0,0,0,0,0,0,0,0,0,0,0,0,0,0,0,0,0,0,0,0,0,0,0,0,0,0,0,0,0,0,0,0,0,0,0,0,0,0,0,0,0,0,0,0,0,0,0,0,0,0,0,0,0,0,0,0,0.4472,0.4472,0,0.451,0.451,0.451,0.4516,0.4515,0.4515,0.4515,0.4565,0.4567,0.4568,0,0,0,0,0,0,0,0,0,0,0,0,0,0.4473,0.4472,0.4472,0.4472,0.4473,0.4509,0.451,0.451,0.4516,0.4515,0.4515,0.4515,0.4564,0.4566,0.4568,0,0,0,0,0,0,0,0,0,0,0,0,0,0.4487,0.4472,0.4472,0.448,0.4481,0.4509,0.451,0.4511,0.4516,0.4515,0.4515,0.4514,0.4564,0.4566,0.4569,0.4594,0,0,0.4576,0.4577,0,0,0,0,0,0,0,0,0.4486,0.4487,0.4478,0.4479,0.4481,0.4508,0.4529,0.4539,0.4516,0.4502,0.4515,0.4514,0.4548,0.4551,0.4559,0.4596,0.4598,0.4576,0.4578,0.4579,0.458,0,0,0,0,0,0,0,0.4485,0.4486,0.4486,0.4479,0.448,0.4505,0.4506,0.4531,0.4527,0.4503,0.4504,0.4509,0.4548,0.4556,0.456,0.4599,0.4576,0.4579,0.458,0.4581,0.4687,0.4688,0,0,0,0,0,0,0.4478,0.4484,0.4485,0.4487,0.4483,0.4506,0.4506,0.4499,0.4527,0.453,0.4509,0.4509,0.4553,0.4557,0.4562,0.4598,0.4579,0.4581,0.4583,0.4686,0.4687,0.4689,0,0,0,0,0,0,0.4477,0.4477,0.4484,0.4488,0.4491,0.4505,0.4498,0.45,0.4509,0.4531,0.4535,0.4515,0.4552,0.4559,0.4591,0.46,0.4582,0.4585,0.4684,0.4686,0.4688,0.4667,0,0,0,0,0,0,0.4477,0.4476,0.447,0.4487,0.449,0.4501,0.4498,0.4501,0.4513,0.4512,0.4537,0.4541,0.4552,0.4587,0.4593,0.4603,0.4587,0.4682,0.4685,0.4687,0.4666,0.4668,0.467,0,0,0,0,0,0.4477,0.4478,0.4469,0.4469,0.4479,0.4501,0.4505,0.4515,0.4513,0.452,0.454,0.4541,0.4608,0.459,0.4597,0.4607,0.4681,0.4684,0.4687,0.4665,0.4668,0.467,0,0,0,0,0,0,0.4473,0.4479,0.4469,0.447,0.4481,0.4502,0.451,0.4516,0.4537,0.4536,0.4555,0.4562,0.4603,0.4611,0.4591,0.4649,0.4646,0.465,0.4627,0.4629,0.4631,0.4638,0.4589,0,0,0,0,0,0.4467,0.4471,0.4477,0.4477,0.448,0.4493,0.4503,0.4508,0.4529,0.4537,0.4553,0.458,0.4622,0.4628,0.4667,0.4686,0.474,0.47,0.4702,0.4703,0.4717,0.4821,0.4834,0.4699,0.4699,0.4699,0,0,0.4468,0.447,0.4473,0.4477,0.4484,0.4491,0.4498,0.4511,0.452,0.4541,0.4558,0.4596,0.4636,0.4669,0.4686,0.467,0.477,0.4707,0.4708,0.4721,0.4826,0.4839,0.485,0.4701,0.47,0.47,0,0,0.4476,0.4468,0.4472,0.4481,0.4489,0.4495,0.4498,0.4514,0.4521,0.4543,0.4575,0.4619,0.4651,0.469,0.4714,0.4751,0.4792,0.4756,0.475,0.485,0.4862,0.4873,0.4952,0.4971,0.4737,0.4737,0.4737,0,0.4483,0.4467,0.4479,0.4484,0.4482,0.4495,0.4492,0.4512,0.4537,0.4545,0.4545,0.4633,0.4667,0.4726,0.4744,0.4755,0.4814,0.473,0.4852,0.4865,0.4877,0.4955,0.4976,0.4736,0.4737,0.4737,0.4737,0,0.4485,0.4474,0.4479,0.4479,0.4486,0.4487,0.4503,0.4514,0.4518,0.4536,0.459,0.4645,0.4694,0.4715,0.4741,0.4835,0.4851,0.4857,0.4842,0.4889,0.4968,0.499,0.4736,0.4736,0.4736,0.4736,0,0,0.4508,0.4482,0.4484,0.4461,0.4474,0.4474,0.4493,0.4505,0.4517,0.4551,0.458,0.4663,0.4694,0.4727,0.4769,0.4848,0.4985,0.4883,0.4889,0.4954,0.5204,0.5065,0.5075,0.5014,0.5018,0.5021,0.5223,0,0.4502,0.4477,0.4476,0.4456,0.4438,0.445,0.4465,0.4486,0.451,0.4549,0.4614,0.467,0.4697,0.473,0.4817,0.4968,0.5044,0.493,0.5157,0.5164,0.5028,0.5096,0.4799,0.4941,0.5244,0.5248,0.5251,0,0.4505,0.4479,0.4442,0.441,0.4405,0.4405,0.4409,0.4429,0.4498,0.4525,0.459,0.465,0.4785,0.4794,0.505,0.4979,0.5092,0.5189,0.5199,0.5093,0.5065,0.4947,0.497,0.4775,0.5285,0.5282,0.528,0,0.4489,0.4458,0.4409,0.4401,0.4381,0.4371,0.4372,0.4419,0.4437,0.4527,0.4562,0.4702,0.4793,0.4967,0.5142,0.5127,0.5412,0.5414,0.5384,0.5376,0.5179,0.5145,0.503,0.5584,0.5584,0.5583,0.5583,0,0.4478,0.4447,0.4391,0.4369,0.4327,0.4337,0.4327,0.4357,0.4418,0.4456,0.4554,0.462,0.4848,0.5009,0.5169,0.5336,0.5437,0.5407,0.5426,0.516,0.5123,0.4989,0.4944,0.5591,0.5589,0.5588,0.5586,0,0.4474,0.4437,0.4383,0.4334,0.4315,0.4294,0.4285,0.4293,0.4361,0.4425,0.4459,0.4616,0.4824,0.5008,0.5301,0.5353,0.5368,0.5553,0.5205,0.5177,0.4935,0.4902,0.48,0.4686,0.5578,0.5576,0.5574,0,0.4459,0.4425,0.4349,0.4316,0.4289,0.4254,0.4235,0.4266,0.4286,0.4416,0.4452,0.4636,0.4739,0.5062,0.5191,0.5398,0.5281,0.5221,0.5127,0.4883,0.4865,0.4755,0.466,0.4877,0.487,0.4864,0.4859,0,0.4436,0.4411,0.4369,0.4292,0.4248,0.4191,0.4174,0.4176,0.4239,0.4283,0.4377,0.4464,0.4702,0.4747,0.4951,0.505,0.4906,0.5101,0.495,0.4385,0.4162,0.407,0.4784,0.4805,0.481,0.4814,0.4817,0.4819,0.4426,0.4393,0.4334,0.4259,0.4203,0.4132,0.4064,0.4065,0.406,0.4063,0.423,0.4221,0.4313,0.4544,0.4614,0.4436,0.4589,0.4312,0.4326,0.4265,0.4016,0.459,0.4557,0.456,0.4564,0.4566,0.4569,0,0.4393,0.4358,0.4298,0.4191,0.4101,0.4085,0.4013,0.392,0.3861,0.3857,0.3877,0.3786,0.3764,0.3822,0.3778,0.3673,0.3579,0.3562,0.3321,0.3301,0.3883,0.3702,0.3352,0.3352,0.3352,0.3352,0.3353,0.3353,0.4378,0.4314,0.427,0.4107,0.4026,0.3837,0.3769,0.3644,0.357,0.3352,0.3194,0.3216,0.3278,0.3231,0.3065,0.3005,0.2835,0.2685,0.2805,0.3153,0.3222,0.3288,0.3101,0.2631,0.2631,0.2028,0.2023,0.202]},{"header":{"parameterUnit":"m.s-1","parameterCategory":2,"la1":30.2991,"la2":30.254,"lo1":-89.0895,"lo2":-89.0444,"dy":0.0017,"dx":0.0017,"nx":28,"ny":28,"refTime":"2024-07-15T03:00:00:Z","depth":"0","parameterNumber":3,"parameterNumberName":"V-component_of_CURRENTS"},"data":[0,0,0,0,0,0,0,0,0,0,0,0,0,0,0,0,0,0,0,0,0,0,0,0,0,0,0,0,0,0,0,0,0,0,0,0,0,0,0,0,0,0,0,0,0,0,0,0,0,0,0,0,0,0,0,0,0,0,0.0955,0.0955,0,0.097,0.097,0.0971,0.0949,0.0949,0.0948,0.0947,0.0928,0.0928,0.0928,0,0,0,0,0,0,0,0,0,0,0,0,0,0.0926,0.0926,0.0955,0.0955,0.0955,0.097,0.097,0.0971,0.095,0.0949,0.0948,0.0947,0.0927,0.0928,0.0928,0,0,0,0,0,0,0,0,0,0,0,0,0,0.094,0.0926,0.0955,0.0946,0.0945,0.097,0.097,0.0971,0.095,0.0949,0.0947,0.0946,0.0927,0.0928,0.0928,0.0955,0,0,0.0929,0.0929,0,0,0,0,0,0,0,0,0.0939,0.0941,0.0947,0.0947,0.0946,0.0956,0.0953,0.0963,0.095,0.0949,0.0947,0.0945,0.0934,0.0934,0.0941,0.0954,0.0954,0.0929,0.0929,0.093,0.093,0,0,0,0,0,0,0,0.0938,0.0941,0.0962,0.0947,0.0946,0.0947,0.0948,0.0955,0.0948,0.0949,0.0947,0.0948,0.0933,0.0941,0.094,0.0953,0.0929,0.093,0.093,0.093,0.1007,0.1008,0,0,0,0,0,0,0.0935,0.094,0.0961,0.0962,0.0938,0.0948,0.0949,0.0955,0.0949,0.0947,0.0949,0.0947,0.0941,0.094,0.094,0.0993,0.093,0.093,0.093,0.1005,0.1007,0.1009,0,0,0,0,0,0,0.0935,0.0937,0.0961,0.095,0.0953,0.095,0.0956,0.0955,0.0964,0.0949,0.0946,0.0958,0.094,0.0939,0.0965,0.0991,0.093,0.0931,0.1003,0.1005,0.1008,0.1086,0,0,0,0,0,0,0.0934,0.0937,0.0944,0.095,0.0953,0.0985,0.0957,0.0957,0.0965,0.0963,0.0956,0.0953,0.0939,0.0965,0.0966,0.099,0.0931,0.1,0.1004,0.1007,0.1081,0.1091,0.1099,0,0,0,0,0,0.0933,0.0951,0.0945,0.0947,0.0962,0.0986,0.0989,0.0982,0.0967,0.0983,0.0984,0.0953,0.0986,0.0968,0.0968,0.0993,0.0999,0.1003,0.1007,0.1077,0.1089,0.1099,0,0,0,0,0,0,0.0934,0.095,0.0944,0.0962,0.0975,0.0982,0.0993,0.099,0.1004,0.0999,0.0982,0.0981,0.1014,0.0997,0.0977,0.1026,0.0985,0.099,0.1039,0.105,0.1059,0.1067,0.0931,0,0,0,0,0,0.0939,0.0962,0.097,0.0986,0.0991,0.0994,0.1002,0.1002,0.1012,0.1016,0.1014,0.1016,0.1033,0.1035,0.1046,0.1074,0.1039,0.1089,0.1099,0.1106,0.1115,0.1108,0.1117,0.1022,0.1022,0.1022,0,0,0.0943,0.0956,0.0967,0.0989,0.0995,0.1022,0.0997,0.1016,0.1045,0.1013,0.1052,0.1052,0.105,0.1086,0.1098,0.1073,0.111,0.1112,0.1118,0.1122,0.1113,0.1122,0.113,0.1025,0.1024,0.1024,0,0,0.097,0.0974,0.1002,0.102,0.1038,0.1046,0.1054,0.1069,0.108,0.1119,0.1107,0.1128,0.1144,0.1155,0.116,0.1227,0.1164,0.1223,0.1271,0.1265,0.1272,0.1278,0.1217,0.1217,0.1222,0.1222,0.1222,0,0.0967,0.1007,0.1013,0.1046,0.1066,0.106,0.1095,0.1113,0.1139,0.1161,0.1139,0.1187,0.1181,0.1231,0.1253,0.1248,0.1212,0.1227,0.1276,0.1281,0.1286,0.1222,0.1221,0.1226,0.1226,0.1225,0.1225,0,0.1015,0.1049,0.1067,0.1109,0.1134,0.1164,0.1187,0.1217,0.1224,0.1241,0.129,0.1288,0.1314,0.1316,0.1304,0.1346,0.1296,0.1291,0.1244,0.13,0.1228,0.1226,0.1232,0.1231,0.1229,0.1228,0,0,0.0989,0.1083,0.1086,0.1126,0.117,0.1197,0.1254,0.1305,0.135,0.1363,0.1419,0.144,0.1429,0.1435,0.1421,0.1414,0.1407,0.1369,0.1366,0.13,0.135,0.1317,0.131,0.1408,0.1409,0.141,0.1274,0,0.1016,0.1101,0.1139,0.1216,0.1258,0.1289,0.1348,0.1396,0.1428,0.1483,0.1481,0.1526,0.1478,0.1494,0.1482,0.1461,0.141,0.1442,0.1312,0.1307,0.1267,0.1311,0.126,0.1137,0.1271,0.1271,0.127,0,0.1036,0.1098,0.1184,0.1288,0.1307,0.1354,0.1445,0.15,0.1572,0.1598,0.1629,0.1629,0.1651,0.1587,0.1533,0.1556,0.1447,0.1394,0.1387,0.1333,0.1273,0.111,0.1126,0.0946,0.1266,0.1266,0.1266,0,0.1017,0.1123,0.1199,0.1232,0.1345,0.1392,0.1448,0.1532,0.1599,0.1672,0.1722,0.173,0.1751,0.166,0.1564,0.1546,0.1476,0.1434,0.1275,0.1268,0.1188,0.1174,0.1015,0.1336,0.1337,0.1337,0.1337,0,0.1029,0.1086,0.12,0.1242,0.1338,0.1405,0.151,0.157,0.167,0.177,0.1776,0.1849,0.1773,0.1734,0.1599,0.1455,0.1494,0.1287,0.1249,0.1211,0.1202,0.1013,0.0953,0.1332,0.1333,0.1334,0.1335,0,0.1002,0.1076,0.117,0.1295,0.1337,0.1403,0.1549,0.1636,0.1717,0.1848,0.1878,0.1945,0.1919,0.18,0.1667,0.1511,0.1267,0.1275,0.1214,0.1173,0.0866,0.0815,0.064,0.0601,0.1079,0.1078,0.1077,0,0.1005,0.1051,0.1195,0.1262,0.1321,0.1433,0.1528,0.1644,0.1748,0.1918,0.199,0.2013,0.2062,0.1858,0.1611,0.1355,0.1206,0.1087,0.1049,0.0849,0.0763,0.0721,0.07,0.0941,0.0939,0.0937,0.0936,0,0.101,0.1056,0.1148,0.1276,0.1381,0.1509,0.1648,0.1738,0.1899,0.2027,0.2189,0.2244,0.207,0.1858,0.1512,0.1311,0.0988,0.1041,0.0862,0.0673,0.0591,0.0536,0.099,0.092,0.0922,0.0923,0.0924,0.0924,0.1017,0.1076,0.1194,0.1313,0.1437,0.1587,0.1693,0.1859,0.2044,0.2242,0.231,0.2382,0.2034,0.16,0.1345,0.0784,0.086,0.0584,0.0539,0.0514,0.0488,0.0894,0.0782,0.0783,0.0784,0.0784,0.0785,0,0.1041,0.1116,0.1227,0.1388,0.1515,0.1579,0.1784,0.1898,0.212,0.2286,0.2432,0.2238,0.1821,0.1358,0.066,0.0324,0.0233,0.0143,0.0051,0.006,0.0415,0.0421,0.0195,0.0195,0.0195,0.0196,0.0196,0.0196,0.1067,0.1168,0.1229,0.1427,0.1537,0.17,0.1817,0.1993,0.2129,0.2268,0.2262,0.2272,0.189,0.0773,0.0002,-0.0157,-0.0317,-0.0375,-0.0405,-0.0211,-0.0174,-0.0139,-0.0151,-0.0493,-0.0493,-0.0756,-0.0759,-0.0761]}],[{"header":{"parameterUnit":"m.s-1","parameterCategory":2,"la1":30.2991,"la2":30.254,"lo1":-89.0895,"lo2":-89.0444,"dy":0.0017,"dx":0.0017,"nx":28,"ny":28,"refTime":"2024-07-15T03:00:00:Z","depth":"2","parameterNumber":2,"parameterNumberName":"U-component_of_CURRENTS"},"data":[0,0,0,0,0,0,0,0,0,0,0,0,0,0,0,0,0,0,0,0,0,0,0,0,0,0,0,0,0,0,0,0,0,0,0,0,0,0,0,0,0,0,0,0,0,0,0,0,0,0,0,0,0,0,0,0,0,0,0.2799,0.2799,0,0.2837,0.2838,0.2838,0.2875,0.2876,0.2876,0.2876,0.3021,0.3024,0.3028,0,0,0,0,0,0,0,0,0,0,0,0,0,0.2755,0.2756,0.2799,0.2799,0.28,0.2837,0.2838,0.2838,0.2875,0.2876,0.2876,0.2876,0.302,0.3024,0.3028,0,0,0,0,0,0,0,0,0,0,0,0,0,0.2784,0.2756,0.2799,0.2821,0.2823,0.2837,0.2838,0.2839,0.2875,0.2876,0.2876,0.2877,0.3018,0.3024,0.3029,0.3053,0,0,0.3045,0.3048,0,0,0,0,0,0,0,0,0.2782,0.2786,0.2817,0.2819,0.2822,0.285,0.2875,0.2915,0.2875,0.2858,0.2876,0.2877,0.2972,0.2981,0.2989,0.306,0.3066,0.3046,0.3049,0.3051,0.3053,0,0,0,0,0,0,0,0.278,0.2784,0.2816,0.2818,0.282,0.2828,0.2833,0.2883,0.2915,0.2859,0.2862,0.2862,0.2974,0.2983,0.2993,0.3068,0.3046,0.305,0.3054,0.3056,0.3275,0.3277,0,0,0,0,0,0,0.2771,0.2782,0.2815,0.2817,0.2801,0.2828,0.2834,0.2842,0.2913,0.2922,0.2862,0.2864,0.2974,0.2986,0.2998,0.3135,0.3051,0.3056,0.3059,0.3272,0.3275,0.3278,0,0,0,0,0,0,0.277,0.2774,0.2813,0.2798,0.2804,0.2828,0.2838,0.2843,0.2886,0.2913,0.2925,0.2904,0.2975,0.2991,0.3069,0.3137,0.3059,0.3064,0.3269,0.3273,0.3277,0.3342,0,0,0,0,0,0,0.2769,0.2774,0.2803,0.2798,0.2804,0.2837,0.2837,0.2843,0.2883,0.2887,0.2953,0.2964,0.2976,0.3061,0.3075,0.3143,0.3068,0.3266,0.3271,0.3275,0.3336,0.3347,0.3357,0,0,0,0,0,0.2767,0.2783,0.2804,0.281,0.2835,0.2837,0.2842,0.2861,0.2885,0.2904,0.2954,0.2964,0.3102,0.3067,0.3083,0.3154,0.3263,0.3269,0.3275,0.3332,0.3345,0.3357,0,0,0,0,0,0,0.2789,0.2788,0.2811,0.2833,0.2847,0.2843,0.2862,0.2885,0.2939,0.2958,0.2991,0.3006,0.3097,0.3118,0.3079,0.3231,0.3188,0.3197,0.3226,0.3239,0.3249,0.3251,0.3072,0,0,0,0,0,0.2806,0.2815,0.2823,0.2846,0.2852,0.2872,0.2887,0.2903,0.2933,0.2958,0.3009,0.307,0.3128,0.3176,0.3218,0.3307,0.3326,0.3365,0.3376,0.3384,0.3397,0.3459,0.3476,0.3297,0.3297,0.3297,0,0,0.2823,0.2823,0.2834,0.2852,0.2863,0.2884,0.2883,0.2907,0.2949,0.2968,0.3059,0.3103,0.3155,0.3244,0.329,0.3277,0.3451,0.3392,0.3398,0.3407,0.3467,0.3485,0.35,0.3301,0.33,0.33,0,0,0.2834,0.2859,0.2867,0.2882,0.2903,0.2913,0.2931,0.2959,0.2998,0.3072,0.3107,0.3191,0.3277,0.3335,0.3372,0.347,0.349,0.3499,0.3573,0.3633,0.3648,0.3661,0.3725,0.3743,0.3519,0.3519,0.352,0,0.2875,0.2873,0.2874,0.2887,0.2904,0.2932,0.2956,0.2998,0.3061,0.3104,0.3109,0.3264,0.3318,0.3435,0.3484,0.3496,0.3532,0.3518,0.3645,0.3659,0.3671,0.3733,0.3752,0.3523,0.3523,0.3522,0.3522,0,0.2873,0.2899,0.2901,0.2931,0.2952,0.2972,0.3015,0.3074,0.3126,0.3169,0.3288,0.3359,0.3455,0.3499,0.3532,0.3669,0.3667,0.3636,0.3608,0.3693,0.3753,0.3772,0.3529,0.3527,0.3526,0.3525,0,0,0.2916,0.2906,0.292,0.2932,0.2977,0.2987,0.3066,0.3133,0.32,0.3283,0.3373,0.3505,0.3555,0.3603,0.3665,0.3745,0.3886,0.3753,0.3754,0.3807,0.4038,0.3764,0.3758,0.3879,0.3883,0.3885,0.4051,0,0.2934,0.2948,0.2944,0.2987,0.3,0.3044,0.3109,0.3184,0.3258,0.3357,0.3453,0.3561,0.359,0.3667,0.3751,0.3853,0.3937,0.3845,0.3957,0.3961,0.3697,0.377,0.3467,0.3563,0.4069,0.4072,0.4074,0,0.2954,0.295,0.2986,0.3006,0.3018,0.3065,0.3165,0.3224,0.3359,0.3424,0.3542,0.3611,0.3786,0.3771,0.398,0.3925,0.4001,0.4058,0.4064,0.3795,0.3719,0.3559,0.3578,0.4105,0.4103,0.4101,0.4099,0,0.2978,0.299,0.3015,0.3027,0.3062,0.311,0.315,0.3266,0.3333,0.3493,0.3565,0.3723,0.3841,0.3948,0.4088,0.4056,0.428,0.4231,0.4052,0.4036,0.3788,0.3739,0.436,0.436,0.436,0.4359,0.4359,0,0.2993,0.3017,0.3033,0.3053,0.3098,0.3125,0.3213,0.3286,0.3407,0.3492,0.3617,0.3721,0.3896,0.4032,0.4122,0.4143,0.4308,0.4076,0.4054,0.38,0.3752,0.422,0.4201,0.4365,0.4364,0.4363,0.4362,0,0.3007,0.3028,0.3056,0.3094,0.3117,0.3158,0.3239,0.3286,0.3418,0.3539,0.3602,0.3782,0.3925,0.4055,0.4248,0.4163,0.4225,0.4196,0.3878,0.3809,0.3938,0.3922,0.3985,0.3977,0.397,0.3964,0.3959,0,0.2987,0.3014,0.3086,0.3107,0.3129,0.3185,0.3216,0.3311,0.3345,0.3562,0.3597,0.3793,0.3845,0.3976,0.3884,0.3902,0.4132,0.3635,0.3466,0.3923,0.3899,0.3893,0.3887,0.3217,0.3207,0.3198,0.3191,0,0.2925,0.2996,0.3004,0.3072,0.311,0.3137,0.3179,0.3204,0.3312,0.3412,0.353,0.3601,0.3634,0.3457,0.342,0.3402,0.3578,0.3441,0.4067,0.3294,0.3193,0.317,0.3191,0.3113,0.3121,0.3127,0.3131,0.3134,0.2864,0.2872,0.2917,0.2974,0.3027,0.3041,0.3033,0.3072,0.3112,0.3163,0.3274,0.3251,0.3187,0.2893,0.2825,0.2786,0.2985,0.2917,0.2949,0.2989,0.2804,0.2689,0.2485,0.2489,0.2492,0.2495,0.2498,0,0.2718,0.2763,0.2801,0.283,0.2837,0.2959,0.2959,0.2916,0.2922,0.2917,0.2922,0.2534,0.2349,0.2421,0.2152,0.2038,0.208,0.2056,0.2137,0.2211,0.2278,0.2063,0.1545,0.1543,0.1541,0.1539,0,0,0.2629,0.2607,0.2644,0.2609,0.269,0.2674,0.2687,0.2664,0.2621,0.2456,0.2353,0.227,0.2309,0.1884,0.1774,0.1672,0.1964,0.1615,0.2371,0.2545,0.2611,0.2747,0.2492,0,0,0,0,0]},{"header":{"parameterUnit":"m.s-1","parameterCategory":2,"la1":30.2991,"la2":30.254,"lo1":-89.0895,"lo2":-89.0444,"dy":0.0017,"dx":0.0017,"nx":28,"ny":28,"refTime":"2024-07-15T03:00:00:Z","depth":"2","parameterNumber":3,"parameterNumberName":"V-component_of_CURRENTS"},"data":[0,0,0,0,0,0,0,0,0,0,0,0,0,0,0,0,0,0,0,0,0,0,0,0,0,0,0,0,0,0,0,0,0,0,0,0,0,0,0,0,0,0,0,0,0,0,0,0,0,0,0,0,0,0,0,0,0,0,-0.0075,-0.0076,0,-0.0146,-0.0147,-0.0148,-0.0217,-0.0218,-0.0219,-0.0219,-0.0313,-0.0314,-0.0316,0,0,0,0,0,0,0,0,0,0,0,0,0,-0.0023,-0.0024,-0.0075,-0.0076,-0.0077,-0.0146,-0.0147,-0.0148,-0.0217,-0.0218,-0.0219,-0.022,-0.0312,-0.0314,-0.0316,0,0,0,0,0,0,0,0,0,0,0,0,0,-0.0066,-0.0024,-0.0075,-0.0118,-0.0123,-0.0146,-0.0147,-0.0149,-0.0217,-0.0218,-0.0219,-0.022,-0.0311,-0.0314,-0.0317,-0.031,0,0,-0.0325,-0.0326,0,0,0,0,0,0,0,0,-0.0064,-0.0068,-0.0111,-0.0115,-0.012,-0.0173,-0.0163,-0.0203,-0.0217,-0.0183,-0.0219,-0.0221,-0.0266,-0.0273,-0.0285,-0.0314,-0.0318,-0.0325,-0.0327,-0.0328,-0.0328,0,0,0,0,0,0,0,-0.0061,-0.0066,-0.0105,-0.0112,-0.0118,-0.0142,-0.015,-0.0171,-0.0219,-0.0186,-0.019,-0.0196,-0.0269,-0.0282,-0.0288,-0.032,-0.0325,-0.0327,-0.0329,-0.033,-0.0309,-0.0307,0,0,0,0,0,0,-0.0047,-0.0063,-0.0103,-0.0107,-0.0093,-0.0142,-0.0151,-0.0156,-0.0218,-0.0228,-0.0195,-0.0199,-0.0277,-0.0285,-0.0291,-0.0233,-0.0328,-0.033,-0.0332,-0.0311,-0.0308,-0.0306,0,0,0,0,0,0,-0.0045,-0.0049,-0.01,-0.0085,-0.0093,-0.0142,-0.0147,-0.0157,-0.0166,-0.0224,-0.0235,-0.0193,-0.0278,-0.0288,-0.0299,-0.024,-0.0331,-0.0334,-0.0314,-0.031,-0.0307,-0.0152,0,0,0,0,0,0,-0.0043,-0.0048,-0.0039,-0.0084,-0.0094,-0.009,-0.0146,-0.0157,-0.0167,-0.0173,-0.0226,-0.0237,-0.028,-0.0294,-0.0301,-0.0245,-0.0336,-0.0316,-0.0312,-0.0308,-0.016,-0.0144,-0.013,0,0,0,0,0,-0.0041,-0.0024,-0.0038,-0.0043,-0.0082,-0.0088,-0.0094,-0.0134,-0.0165,-0.015,-0.0195,-0.0235,-0.0273,-0.0295,-0.0304,-0.0247,-0.0318,-0.0313,-0.0309,-0.0166,-0.0147,-0.0131,0,0,0,0,0,0,-0.0002,-0.0031,-0.0047,-0.0042,-0.0052,-0.0099,-0.0094,-0.0121,-0.0145,-0.0156,-0.0218,-0.0229,-0.0219,-0.0254,-0.0277,-0.0229,-0.0298,-0.0294,-0.0186,-0.0169,-0.0154,-0.014,-0.0338,0,0,0,0,0,0.0015,0.002,-0.0008,-0.0001,-0.0005,-0.0046,-0.0053,-0.0077,-0.0108,-0.0121,-0.0154,-0.0188,-0.0204,-0.0205,-0.0234,-0.0206,-0.0252,-0.0172,-0.0157,-0.0144,-0.0138,-0.0169,-0.0156,-0.029,-0.029,-0.029,0,0,0.003,0.0016,0.0018,0.0009,-0.0011,0.0007,-0.0053,-0.0054,-0.0035,-0.0126,-0.0109,-0.0146,-0.0191,-0.0165,-0.016,-0.0184,-0.0124,-0.0138,-0.0127,-0.0128,-0.0163,-0.015,-0.0138,-0.0287,-0.0288,-0.0288,0,0,0.0071,0.0054,0.0077,0.0079,0.0069,0.005,0.0057,0.0029,0.0022,0.0032,-0.0024,-0.0027,-0.005,-0.006,-0.0073,0.0008,-0.0057,0.0011,0.0113,0.0085,0.0095,0.0104,0.0087,0.0093,0.0034,0.0034,0.0035,0,0.0091,0.0115,0.0086,0.0114,0.0124,0.0077,0.0113,0.0106,0.0083,0.0097,0.0057,0.0038,0.0001,0.0037,0.007,0.0044,0.0015,0.0052,0.0104,0.0112,0.0118,0.0098,0.0102,0.0042,0.0041,0.0041,0.004,0,0.0151,0.0176,0.0191,0.0212,0.0226,0.0246,0.0237,0.0255,0.0236,0.0231,0.0253,0.0199,0.0191,0.0195,0.0157,0.0206,0.0169,0.0115,0.006,0.014,0.0115,0.0117,0.0054,0.0051,0.0049,0.0047,0,0,0.0163,0.0223,0.0227,0.0262,0.0279,0.0293,0.0342,0.0376,0.0413,0.0396,0.0444,0.0424,0.0392,0.0375,0.0334,0.0325,0.0354,0.0259,0.0253,0.0245,0.0304,0.0231,0.0225,0.0308,0.0309,0.0309,0.0278,0,0.0215,0.0296,0.0312,0.039,0.0427,0.0427,0.0481,0.0509,0.0516,0.0556,0.052,0.0535,0.0462,0.0466,0.0448,0.0373,0.0362,0.0368,0.0224,0.022,0.0147,0.0225,0.0203,0.0168,0.0279,0.0279,0.0279,0,0.0259,0.031,0.04,0.0486,0.0502,0.0545,0.0617,0.0661,0.0708,0.0719,0.073,0.069,0.0696,0.0601,0.052,0.0529,0.0434,0.0364,0.036,0.0234,0.015,0.0099,0.0165,0.0281,0.028,0.028,0.028,0,0.027,0.0367,0.0444,0.047,0.0559,0.0605,0.0649,0.071,0.0768,0.0819,0.0863,0.0836,0.083,0.0716,0.0588,0.0553,0.0483,0.0405,0.025,0.0244,0.0165,0.0151,0.0332,0.0332,0.0333,0.0333,0.0333,0,0.031,0.0367,0.0456,0.0494,0.0589,0.0638,0.074,0.0785,0.087,0.0969,0.0939,0.1004,0.0856,0.08,0.0649,0.0476,0.0525,0.0283,0.0234,0.0221,0.0212,0.0249,0.024,0.0331,0.0332,0.0332,0.0332,0,0.0308,0.0369,0.0452,0.0557,0.0596,0.0655,0.079,0.0871,0.0945,0.107,0.1096,0.1134,0.1071,0.091,0.0746,0.0558,0.0394,0.0312,0.0318,0.0269,0.0155,0.0155,0.0126,0.0123,0.0121,0.0119,0.0117,0,0.0321,0.0365,0.0479,0.0537,0.0586,0.069,0.0778,0.0887,0.0986,0.1163,0.1232,0.1234,0.1255,0.0996,0.0676,0.0392,0.0393,0.017,0.0077,0.018,0.0136,0.0139,0.0141,0.005,0.0048,0.0046,0.0045,0,0.0333,0.0364,0.0435,0.0551,0.0644,0.0768,0.0901,0.1002,0.1162,0.1311,0.1503,0.1542,0.1278,0.0989,0.057,0.0376,0.0208,0.0121,0.025,0.0095,0.0102,0.0061,0.0067,0.003,0.0032,0.0033,0.0034,0.0034,0.0334,0.0377,0.0468,0.0579,0.0691,0.0852,0.0968,0.116,0.1376,0.1585,0.1606,0.1632,0.1254,0.0687,0.0399,0.0092,0.0078,-0.0068,-0.006,-0.0051,-0.0065,-0.0063,-0.0168,-0.0167,-0.0167,-0.0167,-0.0167,0,0.036,0.041,0.0505,0.0651,0.078,0.0838,0.1062,0.1217,0.151,0.1626,0.1743,0.1369,0.1023,0.0689,0.0176,-0.0152,-0.014,-0.0199,-0.0134,-0.012,-0.0108,-0.0121,-0.0241,-0.0241,-0.0241,-0.0241,0,0,0.0383,0.0468,0.0523,0.0711,0.0813,0.0994,0.1129,0.1393,0.1529,0.1689,0.1662,0.1445,0.1039,0.0629,0.0231,0.0018,0.0039,-0.0014,0.006,0.0192,0.021,-0.004,-0.0049,0,0,0,0,0]}],[{"header":{"parameterUnit":"m.s-1","parameterCategory":2,"la1":30.2991,"la2":30.254,"lo1":-89.0895,"lo2":-89.0444,"dy":0.0017,"dx":0.0017,"nx":28,"ny":28,"refTime":"2024-07-15T03:00:00:Z","depth":"4","parameterNumber":2,"parameterNumberName":"U-component_of_CURRENTS"},"data":[0,0,0,0,0,0,0,0,0,0,0,0,0,0,0,0,0,0,0,0,0,0,0,0,0,0,0,0,0,0,0,0,0,0,0,0,0,0,0,0,0,0,0,0,0,0,0,0,0,0,0,0,0,0,0,0,0,0,0.0456,0.0458,0,0.0587,0.0588,0.0589,0.0688,0.069,0.0691,0.0693,0.0797,0.0798,0.0799,0,0,0,0,0,0,0,0,0,0,0,0,0,0.0389,0.0388,0.0456,0.0458,0.0461,0.0587,0.0588,0.0589,0.0688,0.069,0.0692,0.0694,0.0797,0.0798,0.08,0,0,0,0,0,0,0,0,0,0,0,0,0,0.045,0.0388,0.0456,0.0532,0.054,0.0587,0.0588,0.0589,0.0687,0.069,0.0692,0.0695,0.0796,0.0798,0.08,0.076,0,0,0.0805,0.0806,0,0,0,0,0,0,0,0,0.0447,0.0451,0.0518,0.0527,0.0536,0.0631,0.0603,0.0648,0.0687,0.0622,0.0693,0.0696,0.0743,0.0749,0.0756,0.0765,0.077,0.0805,0.0806,0.0807,0.0808,0,0,0,0,0,0,0,0.0442,0.0447,0.0499,0.0521,0.0532,0.0593,0.0603,0.0612,0.066,0.0628,0.0638,0.0665,0.0747,0.0754,0.076,0.0771,0.0805,0.0807,0.0808,0.0809,0.0954,0.0956,0,0,0,0,0,0,0.0435,0.0442,0.0495,0.0504,0.0506,0.0593,0.0603,0.0591,0.0661,0.0676,0.0663,0.0669,0.075,0.0757,0.0764,0.0896,0.0807,0.0809,0.081,0.0951,0.0954,0.0957,0,0,0,0,0,0,0.0432,0.0436,0.049,0.0486,0.0498,0.0591,0.0577,0.0593,0.067,0.0689,0.0703,0.0734,0.0752,0.0761,0.0818,0.0895,0.081,0.0811,0.0948,0.0952,0.0956,0.1049,0,0,0,0,0,0,0.0428,0.0433,0.0448,0.0483,0.0498,0.0547,0.0576,0.0594,0.0683,0.0694,0.0752,0.0761,0.0755,0.0816,0.082,0.0895,0.0813,0.0944,0.0949,0.0954,0.1042,0.1055,0.1067,0,0,0,0,0,0.0425,0.0433,0.0447,0.0456,0.0505,0.0549,0.0562,0.0632,0.0685,0.0712,0.0758,0.0763,0.0853,0.0818,0.0823,0.0901,0.0942,0.0948,0.0954,0.1037,0.1053,0.1067,0,0,0,0,0,0,0.0421,0.0445,0.0462,0.0479,0.0525,0.057,0.0606,0.0667,0.0726,0.0748,0.0776,0.0786,0.0868,0.0867,0.0828,0.096,0.0907,0.0914,0.0969,0.0984,0.0996,0.0982,0.0814,0,0,0,0,0,0.0421,0.0432,0.0466,0.049,0.05,0.0565,0.0607,0.0656,0.0706,0.0739,0.0786,0.0837,0.0884,0.0922,0.0942,0.1003,0.0962,0.1064,0.1077,0.1087,0.1082,0.1088,0.1099,0.0978,0.0978,0.0977,0,0,0.0431,0.0449,0.0459,0.0492,0.052,0.0561,0.0594,0.0659,0.0728,0.0735,0.0838,0.0873,0.0907,0.0977,0.1018,0.0997,0.1098,0.1095,0.1104,0.1092,0.1095,0.1107,0.1117,0.0982,0.0981,0.098,0,0,0.0453,0.0455,0.0472,0.0507,0.0568,0.0596,0.0631,0.0699,0.0757,0.0856,0.0881,0.0951,0.1044,0.1063,0.1093,0.1184,0.1155,0.123,0.1292,0.13,0.1309,0.1317,0.1256,0.1257,0.1246,0.1247,0.1247,0,0.0474,0.0487,0.0494,0.0527,0.0566,0.062,0.0663,0.0721,0.0821,0.0868,0.091,0.1052,0.1081,0.1157,0.1207,0.1212,0.1194,0.1232,0.1313,0.132,0.1326,0.1262,0.1263,0.1252,0.1251,0.1251,0.125,0,0.0493,0.0535,0.0545,0.0591,0.0632,0.0675,0.0737,0.0806,0.0901,0.0973,0.1093,0.1133,0.1237,0.1262,0.1277,0.1354,0.1316,0.1317,0.1267,0.1344,0.1271,0.127,0.1259,0.1258,0.1256,0.1255,0,0,0.0452,0.0541,0.055,0.0599,0.0668,0.0705,0.0791,0.0876,0.0967,0.1077,0.1199,0.1288,0.1351,0.1385,0.1411,0.1413,0.1443,0.1409,0.1407,0.1333,0.1425,0.1331,0.1319,0.1477,0.1478,0.1479,0.1346,0,0.0468,0.0545,0.0582,0.0679,0.0717,0.078,0.0858,0.0955,0.1061,0.1188,0.1256,0.1381,0.1391,0.1473,0.149,0.1448,0.145,0.1475,0.1375,0.137,0.1266,0.1319,0.1482,0.1345,0.1344,0.1344,0.1344,0,0.0468,0.0522,0.0607,0.0731,0.0748,0.084,0.0959,0.1047,0.1199,0.1288,0.1419,0.149,0.1549,0.1562,0.152,0.1548,0.1519,0.1459,0.1453,0.1331,0.1276,0.1261,0.134,0.134,0.1341,0.1341,0.1341,0,0.0429,0.0546,0.0618,0.0657,0.0789,0.0875,0.0973,0.111,0.1195,0.1386,0.1468,0.1556,0.1642,0.1595,0.1532,0.1552,0.1438,0.1444,0.1308,0.1297,0.1375,0.1368,0.1428,0.1428,0.1428,0.1428,0.1429,0,0.0418,0.0482,0.0637,0.0683,0.0799,0.0908,0.1068,0.1163,0.1331,0.1416,0.1558,0.1601,0.1671,0.1631,0.1542,0.1401,0.1457,0.1308,0.1272,0.1414,0.1414,0.1371,0.1366,0.1423,0.1425,0.1426,0.1426,0,0.0372,0.0457,0.0557,0.0724,0.0797,0.0901,0.1134,0.122,0.1383,0.1501,0.1566,0.1675,0.1595,0.1561,0.1469,0.1417,0.1265,0.1211,0.1316,0.1288,0.111,0.1112,0.1038,0.1034,0.1031,0.1028,0.1025,0,0.0353,0.0414,0.0584,0.066,0.0765,0.0952,0.105,0.1243,0.1323,0.1473,0.1486,0.1531,0.1558,0.1334,0.1305,0.1123,0.1119,0.1078,0.1149,0.1106,0.1078,0.1085,0.1092,0.102,0.1019,0.1018,0.1017,0,0.0324,0.0399,0.0463,0.062,0.0752,0.0887,0.1069,0.1105,0.127,0.141,0.1414,0.1404,0.1331,0.125,0.1164,0.102,0.1118,0.1042,0.1049,0.1116,0.1083,0.106,0.107,0.1005,0.1007,0.1008,0.1009,0,0.0295,0.0333,0.0434,0.0559,0.0705,0.0797,0.0903,0.1006,0.1104,0.1267,0.1235,0.123,0.1314,0.1187,0.1039,0.0958,0.0945,0.0954,0.0966,0.0978,0.102,0.0973,0.0825,0,0,0,0,0,0.0292,0.0307,0.0387,0.0505,0.0639,0.0732,0.0878,0.0964,0.109,0.1068,0.1184,0.1094,0.1015,0.0994,0.0881,0.0925,0.0892,0.0791,0.0897,0.0939,0.0953,0.1007,0,0,0,0,0,0,0.0275,0.0322,0.0331,0.0427,0.0509,0.0645,0.0722,0.0802,0.0825,0.0957,0.0897,0.1049,0.0935,0.1049,0.0864,0.0853,0.0904,0.0806,0.0804,0.0931,0.0944,0.0955,0.1015,0,0,0,0,0]},{"header":{"parameterUnit":"m.s-1","parameterCategory":2,"la1":30.2991,"la2":30.254,"lo1":-89.0895,"lo2":-89.0444,"dy":0.0017,"dx":0.0017,"nx":28,"ny":28,"refTime":"2024-07-15T03:00:00:Z","depth":"4","parameterNumber":3,"parameterNumberName":"V-component_of_CURRENTS"},"data":[0,0,0,0,0,0,0,0,0,0,0,0,0,0,0,0,0,0,0,0,0,0,0,0,0,0,0,0,0,0,0,0,0,0,0,0,0,0,0,0,0,0,0,0,0,0,0,0,0,0,0,0,0,0,0,0,0,0,0.0278,0.0278,0,0.0223,0.0222,0.022,0.0189,0.019,0.019,0.0191,0.0049,0.0045,0.0041,0,0,0,0,0,0,0,0,0,0,0,0,0,0.0299,0.0298,0.0278,0.0278,0.0278,0.0223,0.0222,0.022,0.0189,0.019,0.019,0.0191,0.005,0.0045,0.004,0,0,0,0,0,0,0,0,0,0,0,0,0,0.0264,0.0298,0.0278,0.0261,0.026,0.0223,0.0221,0.022,0.0189,0.019,0.0191,0.0191,0.0052,0.0046,0.0039,-0.0018,0,0,0.002,0.0017,0,0,0,0,0,0,0,0,0.0266,0.0263,0.0264,0.0262,0.0261,0.022,0.0177,0.0139,0.0189,0.0208,0.0191,0.0192,0.0102,0.0092,0.007,-0.0024,-0.003,0.0019,0.0015,0.0012,0.0011,0,0,0,0,0,0,0,0.0269,0.0265,0.0249,0.0264,0.0262,0.0237,0.0233,0.0169,0.0144,0.0206,0.0206,0.0211,0.01,0.0077,0.0067,-0.0032,0.0019,0.0014,0.001,0.0007,-0.0211,-0.0213,0,0,0,0,0,0,0.0292,0.0267,0.0251,0.0248,0.0274,0.0237,0.0232,0.0226,0.0146,0.0138,0.021,0.021,0.0087,0.0074,0.0061,-0.0031,0.0013,0.0006,0.0003,-0.021,-0.0212,-0.0214,0,0,0,0,0,0,0.0293,0.0291,0.0253,0.0263,0.0257,0.0237,0.023,0.0225,0.021,0.0152,0.014,0.0204,0.0087,0.0071,0.0009,-0.0036,0.0004,-0.0002,-0.0207,-0.021,-0.0213,-0.0203,0,0,0,0,0,0,0.0293,0.0291,0.0297,0.0264,0.0258,0.023,0.023,0.0223,0.0216,0.0214,0.0142,0.0129,0.0087,0.0019,0.0003,-0.0044,-0.0007,-0.0205,-0.0209,-0.0212,-0.0201,-0.0205,-0.0209,0,0,0,0,0,0.0294,0.0297,0.0297,0.0296,0.0266,0.023,0.0223,0.0207,0.0215,0.0198,0.0157,0.0132,-0.0016,0.0013,-0.0006,-0.0056,-0.0203,-0.0208,-0.0212,-0.0199,-0.0205,-0.0209,0,0,0,0,0,0,0.0299,0.0294,0.0293,0.0293,0.0266,0.0228,0.0226,0.0212,0.0166,0.0168,0.0115,0.0098,0.0021,-0.0016,0.0018,-0.0131,-0.0118,-0.0126,-0.0103,-0.0108,-0.0112,-0.0073,-0.0013,0,0,0,0,0,0.0308,0.031,0.0291,0.0286,0.0285,0.0256,0.0245,0.0226,0.0187,0.017,0.0118,0.0056,-0.0016,-0.0054,-0.0121,-0.0195,-0.0211,-0.0243,-0.0247,-0.025,-0.0233,-0.0309,-0.0317,-0.0228,-0.0228,-0.0228,0,0,0.0309,0.0307,0.0307,0.0288,0.0274,0.0253,0.0249,0.0229,0.0199,0.0158,0.0101,0.0041,-0.0038,-0.0123,-0.0163,-0.0156,-0.0283,-0.0256,-0.0258,-0.0239,-0.0314,-0.0323,-0.033,-0.0231,-0.0231,-0.023,0,0,0.0307,0.0311,0.0316,0.0299,0.0284,0.0256,0.0256,0.0214,0.019,0.0127,0.0084,0.0013,-0.0093,-0.0159,-0.0206,-0.0271,-0.03,-0.0308,-0.0302,-0.0376,-0.0383,-0.039,-0.0403,-0.0411,-0.0312,-0.0312,-0.0312,0,0.0309,0.0312,0.0306,0.0302,0.0292,0.0262,0.0249,0.021,0.0145,0.0118,0.0111,-0.0049,-0.0112,-0.0217,-0.024,-0.0281,-0.0303,-0.0273,-0.0378,-0.0385,-0.0392,-0.0404,-0.0413,-0.0313,-0.0313,-0.0313,-0.0312,0,0.031,0.0311,0.0312,0.0297,0.0275,0.0258,0.0217,0.018,0.0148,0.0102,0.0005,-0.0081,-0.0168,-0.022,-0.0249,-0.0345,-0.0337,-0.037,-0.0356,-0.04,-0.041,-0.042,-0.0313,-0.0313,-0.0313,-0.0313,0,0,0.0315,0.0315,0.0316,0.0316,0.0276,0.0258,0.0208,0.0152,0.0126,0.0041,-0.0011,-0.0141,-0.0173,-0.0225,-0.0289,-0.0354,-0.042,-0.0375,-0.0379,-0.0367,-0.0542,-0.0476,-0.0479,-0.0476,-0.0478,-0.048,-0.0521,0,0.0318,0.0321,0.0309,0.0292,0.029,0.0249,0.0206,0.0146,0.0091,0.0028,-0.0067,-0.0139,-0.0182,-0.0218,-0.0298,-0.0397,-0.0447,-0.0402,-0.0517,-0.0519,-0.044,-0.0489,-0.0486,-0.0528,-0.053,-0.0532,-0.0533,0,0.0329,0.0329,0.0329,0.0306,0.0302,0.0288,0.0232,0.0188,0.0092,0.0049,-0.0037,-0.0107,-0.0215,-0.024,-0.0407,-0.0377,-0.0445,-0.0512,-0.0517,-0.046,-0.0471,-0.0484,-0.0549,-0.0548,-0.0547,-0.0546,-0.0545,0,0.0351,0.0343,0.0349,0.0342,0.0305,0.0305,0.0284,0.0206,0.0181,0.0084,0.005,-0.0094,-0.0152,-0.0282,-0.0409,-0.0415,-0.0576,-0.0609,-0.0605,-0.0599,-0.0646,-0.0639,-0.0711,-0.0711,-0.0711,-0.0711,-0.0711,0,0.0359,0.0363,0.0378,0.0382,0.0389,0.0355,0.0355,0.0302,0.0244,0.0204,0.0086,0.0013,-0.0168,-0.0286,-0.0403,-0.0518,-0.0573,-0.0595,-0.0617,-0.0639,-0.0632,-0.0651,-0.0644,-0.0713,-0.0712,-0.0712,-0.0712,0,0.0375,0.0379,0.0394,0.0396,0.0409,0.0421,0.0437,0.0416,0.0364,0.031,0.0286,0.0101,-0.0062,-0.0219,-0.0426,-0.0485,-0.0617,-0.0639,-0.0605,-0.0625,-0.0585,-0.0577,-0.064,-0.0639,-0.0637,-0.0636,-0.0635,0,0.0376,0.0399,0.0433,0.046,0.0477,0.051,0.0516,0.0483,0.046,0.0348,0.0302,0.0153,0.002,-0.021,-0.0386,-0.0566,-0.0592,-0.0616,-0.0639,-0.0568,-0.0584,-0.0578,-0.0572,-0.0633,-0.0632,-0.0632,-0.0631,0,0.0383,0.0414,0.0421,0.0492,0.0528,0.0556,0.0574,0.0558,0.0491,0.0471,0.0325,0.0188,0.001,-0.0202,-0.0316,-0.0465,-0.0586,-0.0601,-0.0606,-0.0628,-0.0559,-0.0575,-0.0571,-0.0626,-0.0627,-0.0628,-0.0628,0,0.0389,0.0406,0.0442,0.049,0.0555,0.0564,0.0569,0.0536,0.051,0.0402,0.0353,0.0149,0.0044,-0.015,-0.0287,-0.039,-0.0426,-0.0437,-0.0451,-0.0459,-0.0396,-0.0282,-0.028,0,0,0,0,0,0.0395,0.0401,0.0441,0.0471,0.0544,0.0581,0.0579,0.0563,0.0514,0.0435,0.0407,0.0241,0.003,-0.0106,-0.0199,-0.0282,-0.0457,-0.0391,-0.0479,-0.0598,-0.0604,-0.0557,0,0,0,0,0,0,0.0384,0.0413,0.0414,0.0458,0.0502,0.0548,0.0549,0.0505,0.0456,0.0412,0.0279,0.0274,0.0035,0.01,-0.0182,-0.022,-0.0275,-0.0484,-0.0484,-0.0595,-0.06,-0.0605,-0.0559,0,0,0,0,0]}]]